TIME,DELAY(SENSOR),PRES,OXYGEN,RAWTEMP,T(OPTODE),TCPHASE,FLUOR,BETA(BETA700),BETA(BETA412),BETA(BETA440),CDOM,C(CSC),ED(ED412.40),ED(ED444.00),ED(ED489.70),ED(ED554.30),LU(LU411.80),LU(LU443.40),LU(LU489.60),LU(LU554.10),COMP,TILTX,TILTY,CHECK
1363837721,5806,854.5999755859375000,45.0981292724609400,660.1497802734375000,4.6230387687683105,54.2427101135253900,53,101,86,79,80,14695,2147757869,2147424201,2148010541,2147874697,2147638994,2147053842,2148253568,2147197970,2925,4,13,19236
1363841317,5806,929.5800170898438000,48.0323410034179700,666.2432861328125000,4.4222149848937990,53.9013900756835940,53,100,88,79,80,14695,2147758272,2147420717,2148008274,2147874806,2147639442,2147060123,2148255195,2147196973,558,4,13,22282
1363844917,5807,941.0700073242188000,48.5778808593750000,667.6262207031250000,4.3765788078308105,53.8344688415527340,53,99,82,81,79,14700,2147756708,2147424896,2148009554,2147874166,2147641965,2147057188,2148260745,2147199195,56,4,13,7021
1363848517,5809,968.1900024414062000,50.1939201354980500,670.5828247070312000,4.2789421081542970,53.6520690917968750,51,99,85,78,80,14692,2147755556,2147423981,2148009920,2147874194,2147637184,2147056036,2148259602,2147197814,3530,4,13,18074
1363852117,5808,966.0200195312500000,49.9597091674804700,671.9906005859375000,4.2324180603027340,53.7009887695312500,53,99,86,79,81,14685,2147756333,2147422290,2148009206,2147876169,2147641746,2147057142,2148261787,2147196297,480,4,13,60225
1363855717,5810,972.5100097656250000,49.5142097473144500,672.9213867187500000,4.2016429901123050,53.7771110534668000,52,104,86,78,80,14679,2147757714,2147424621,2148007817,2147875858,2147641033,2147053248,2148260013,2147198198,27,4,13,30996
1363859317,5805,986.8599853515625000,49.5833816528320300,671.8809814453125000,4.2360401153564450,53.7510986328125000,52,98,87,79,80,14682,2147757056,2147425536,2148011657,2147877769,2147640036,2147058093,2148265005,2147201590,38,4,13,30679
1363862917,5809,987.4600219726562000,49.7569007873535160,670.6488037109375000,4.2767620086669920,53.7114982604980500,53,97,86,79,80,14680,2147758189,2147424950,2148010477,2147875446,2147642605,2147060736,2148264045,2147198098,365,4,13,4019
1363866517,5805,994.0800170898438000,49.0996589660644500,669.1547241210938000,4.3261179924011230,53.7841606140136700,53,98,88,79,79,14681,2147756507,2147423762,2148009947,2147875062,2147641709,2147055853,2148265856,2147198317,163,4,13,8094
1363870117,5808,986.6300048828125000,48.2928009033203100,669.4625854492188000,4.3159470558166500,53.9022102355957000,53,103,84,80,79,14681,2147756315,2147425856,2148006253,2147875702,2147642020,2147054473,2148263872,2147200064,3113,4,13,8668
1363873717,5805,977.3599853515625000,49.1293106079101560,670.2520141601562000,4.2898712158203125,53.7967109680175800,52,100,88,78,80,14684,2147755520,2147425097,2148012297,2147876662,2147641782,2147055424,2148262518,2147195986,913,4,13,52524
1363877317,5808,983.1699829101562000,49.1993904113769500,671.2979125976562000,4.2553157806396480,53.7991485595703100,52,98,84,78,79,14685,2147756928,2147424667,2148010614,2147875136,2147642560,2147058459,2148263094,2147197833,335,4,13,2769
1363880917,5810,982.8300170898438000,49.3749389648437500,671.3125000000000000,4.2548308372497560,53.7741317749023440,52,100,85,77,80,14657,2147757686,2147427062,2148008027,2147873490,2147641152,2147057581,2148263926,2147197348,62,4,13,2124
1363884517,5808,983.7299804687500000,49.2765808105468750,671.2886962890625000,4.2556171417236330,53.7879600524902340,53,99,87,77,80,14659,2147758921,2147423990,2148009261,2147875995,2147643657,2147057353,2148267922,2147194880,599,4,13,58868
1363888117,5809,977.5399780273438000,49.0997390747070300,671.5025024414062000,4.2485518455505370,53.8124084472656250,53,98,84,79,79,14658,2147757504,2147423158,2148010925,2147873984,2147641216,2147053805,2148257499,2147200237,423,4,13,62443
1363891717,5811,973.4799804687500000,49.6627502441406250,673.4528808593750000,4.1840648651123050,53.7595405578613300,53,102,87,79,79,14656,2147755995,2147425700,2148007725,2147875913,2147639616,2147054802,2148260745,2147201362,543,4,13,19634
1363895317,5810,987.5499877929688000,49.3951187133789060,673.2869873046875000,4.1895542144775390,53.7962112426757800,51,98,84,78,81,14657,2147753746,2147425984,2148009801,2147874185,2147642733,2147056850,2148264768,2147197604,67,4,13,62987
1363898917,5806,994.3400268554688000,48.7676391601562500,672.0567016601562000,4.2302317619323730,53.8643608093261700,52,100,86,80,79,14656,2147757686,2147424576,2148010249,2147876498,2147640722,2147058742,2148264841,2147201225,501,4,13,37153
1363902517,5807,991.1500244140625000,48.6963081359863300,671.3817749023438000,4.2525410652160645,53.8710098266601560,54,98,87,78,80,14652,2147754825,2147424987,2148009408,2147874523,2147639862,2147056795,2148259328,2147198381,3480,4,13,40355
1363906117,5807,993.8800048828125000,48.1753616333007800,671.1940917968750000,4.2587428092956540,53.9391593933105500,52,99,84,79,80,14655,2147756635,2147423396,2148006052,2147877421,2147639158,2147055771,2148261961,2147198848,3500,4,13,6935
1363909717,5807,993.7899780273438000,48.6842308044433600,672.0275878906250000,4.2311949729919430,53.8783607482910160,52,97,85,80,80,14656,2147760411,2147423771,2148010989,2147874267,2147641252,2147059584,2148264877,2147196461,68,4,13,35255
1363913317,5808,992.5100097656250000,48.2688598632812500,670.9895019531250000,4.2655048370361330,53.9243011474609400,53,101,88,79,80,14656,2147758701,2147426816,2148008731,2147876864,2147641609,2147058916,2148259803,2147196516,3355,4,13,63564
1363916917,5810,981.0900268554688000,48.1804504394531250,671.6286010742188000,4.2443847656250000,53.9430389404296900,52,98,89,79,81,14658,2147756708,2147426285,2148011821,2147879716,2147639268,2147056585,2148259318,2147199798,3150,4,13,52155
1363920517,5808,987.7899780273438000,48.8067016601562500,672.2230224609375000,4.2247371673583980,53.8616600036621100,52,97,84,77,79,14652,2147756132,2147426706,2148011364,2147877019,2147640182,2147055268,2148263497,2147198427,139,4,13,4768
1363924117,5811,989.1400146484375000,48.5791587829589840,672.2584838867188000,4.2235617637634280,53.8966484069824200,53,100,85,78,80,14654,2147757568,2147424795,2148012361,2147876123,2147640850,2147055369,2148264923,2147202011,456,4,13,35520
1363927717,5808,976.7100219726562000,48.7878494262695300,672.9702148437500000,4.2000288963317870,53.8777999877929700,52,100,85,79,81,14655,2147755958,2147427885,2148011291,2147876214,2147643428,2147049819,2148261741,2147197851,322,4,13,46238
1363931317,5809,987.8800048828125000,48.7496109008789060,673.9171752929688000,4.1687088012695310,53.8898086547851560,53,98,81,79,80,14657,2147761042,2147423561,2148008923,2147878592,2147643190,2147056009,2148263378,2147201051,262,4,13,17913
1363934917,5809,981.9899902343750000,49.1267509460449200,673.6160888671875000,4.1786689758300780,53.8400306701660160,52,98,86,78,81,14655,2147758793,2147422674,2148011803,2147877037,2147641362,2147056493,2148259785,2147195492,247,4,13,32952
1363938517,5806,992.9099731445312000,49.1428985595703100,673.5236206054688000,4.1817297935485840,53.8332405090332000,53,101,85,78,81,14647,2147756388,2147424384,2148014610,2147876498,2147640758,2147050441,2148261668,2147199387,140,4,13,14091
1363942117,5811,986.9899902343750000,48.8533782958984400,673.1455078125000000,4.1942329406738280,53.8671112060546900,53,99,84,79,80,14650,2147754294,2147422518,2148011803,2147874944,2147642907,2147056649,2148265188,2147198573,3532,4,13,25267
1363945717,5809,988.8800048828125000,49.0106201171875000,673.4108886718750000,4.1854548454284670,53.8475990295410160,53,97,87,78,79,14647,2147754395,2147423862,2148009682,2147876379,2147643392,2147054528,2148265627,2147200786,3450,4,13,58810
1363949317,5809,994.7399902343750000,49.6685409545898440,671.9694213867188000,4.2331180572509770,53.7422790527343750,52,99,87,78,80,14644,2147754505,2147423990,2148010825,2147875200,2147640585,2147054701,2148260516,2147198299,3504,4,13,35086
1363952917,5808,992.0399780273438000,49.0840682983398440,670.3632812500000000,4.2861938476562500,53.8007583618164060,52,98,84,78,81,14647,2147753974,2147423241,2148010578,2147875172,2147640292,2147052233,2148261138,2147195840,399,4,13,30877
1363956517,5808,996.4699707031250000,49.6472396850585940,671.5479125976562000,4.2470488548278810,53.7396392822265600,52,96,86,78,79,14643,2147754313,2147423945,2148009901,2147873819,2147642139,2147051940,2148263981,2147195126,263,4,13,8584
1363960117,5810,994.9099731445312000,49.5340118408203100,671.3438110351562000,4.2537980079650880,53.7492408752441400,52,99,88,79,79,14643,2147753773,2147428352,2148010249,2147871734,2147640914,2147053732,2148261723,2147199488,335,4,13,62004
1363963717,5808,995.8800048828125000,48.2687797546386700,670.8267822265625000,4.2708802223205570,53.9232597351074200,52,99,85,79,80,14646,2147757129,2147428150,2148013056,2147874651,2147640310,2147051300,2148263259,2147202541,3484,4,13,53086
1363967317,5809,992.0200195312500000,49.2995796203613300,671.3283081054688000,4.2543091773986820,53.7831001281738300,52,101,87,79,80,14645,2147757248,2147426368,2148009307,2147872969,2147642422,2147061184,2148263094,2147198208,222,4,13,228
1363970917,5808,998.0100097656250000,49.3398590087890600,671.7224121093750000,4.2412829399108890,53.7850990295410160,53,100,87,78,80,14638,2147758948,2147425124,2148011318,2147876882,2147639396,2147051949,2148261302,2147199981,115,4,13,34246
1363974517,5809,987.0300292968750000,48.7752304077148440,672.9752197265625000,4.1998667716979980,53.8782081604003900,53,96,85,78,79,14643,2147755776,2147424091,2148014427,2147875044,2147640027,2147051693,2148262966,2147198665,3449,4,13,20252
1363978117,5809,977.9199829101562000,48.9123802185058600,675.1511230468750000,4.1278882026672360,53.8856506347656250,52,97,84,79,80,14643,2147758427,2147426441,2148010889,2147872795,2147640274,2147057563,2148262189,2147199058,3222,4,13,46353
1363981717,5809,977.1799926757812000,49.4065208435058600,675.0706176757812000,4.1305499076843260,53.8167190551757800,52,99,86,84,80,14641,2147755986,2147424365,2148011693,2147875236,2147641508,2147058157,2148266112,2147200448,145,4,13,22724
1363983055,5810,986.2700195312500000,49.1511993408203100,675.8767700195312000,4.1038680076599120,53.8582496643066400,52,98,88,77,80,14679,2147756845,2147423542,2148009206,2147874971,2147644205,2147052425,2148266377,2147198171,121,4,13,34714
